Regional Weather Roundup
Issued by NWS

Home | Current Version | Previous Version | Graphics & Text | Print | Product List | Glossary On
Versions: 1 2 3 4 5 6 7 8 9 10 11 12 13 14 15 16 17 18 19 20 21 22 23 24 25 26 27 28 29 30 31 32 33 34 35 36 37 38 39 40 41 42 43 44 45 46 47 48 49 50
000
ASUS43 KMPX 222301
RWRMN
WEATHER ROUNDUP FOR MINNESOTA
NATIONAL WEATHER SERVICE TWIN CITIES/CHANHASSEN MN
600 PM CDT FRI AUG 22 2014


NOTE: "FAIR" INDICATES FEW OR NO CLOUDS BELOW 12,000 FEET WITH NO
SIGNIFICANT WEATHER AND/OR OBSTRUCTIONS TO VISIBILITY. N/A MEANS
CURRENT SKY AND/OR WEATHER CONDITIONS ARE NOT AVAILABLE.

MNZ060>063-068>070-230000-
   Twin Cities Metro

CITY           SKY/WX    TMP DP  RH WIND       PRES   REMARKS
TWIN CITIES    CLOUDY    77  68  73 NW8       29.98R
ST PAUL        CLOUDY    76  68  76 N8        29.98R
CRYSTAL        CLOUDY    77  67  71 N6        29.98R
BLAINE         CLOUDY    75  72  88 NW9       29.99R
LAKEVILLE      PTSUNNY   77  68  73 NW5       29.98R
EDEN PRAIRIE   CLOUDY    78  68  71 CALM      29.98R
SOUTH ST PAUL  PTSUNNY   77  68  73 N7        29.97R
LAKE ELMO      CLOUDY    73  70  88 NW5       30.00R
$$
MNZ001>005-007-008-013>017-022>024-027-028-230000-
   Northwest Minnesota

CITY           SKY/WX    TMP DP  RH WIND       PRES   REMARKS
BEMIDJI        RAIN      68  67  96 NE9       30.02R
HALLOCK        PTSUNNY   70  64  83 N14       30.05R
ROSEAU         CLOUDY    70  64  83 NE5       30.03S
WARROAD        CLOUDY    72  66  83 N5        30.04S
THIEF RVR FALL CLOUDY    72  66  83 N8        30.03R
CROOKSTON      LGT RAIN  68  66  94 N10       30.04R
FOSSTON        CLOUDY    72  66  83 W5        30.02S
DETROIT LAKES  PTSUNNY   72  66  83 N10       30.03F
MOORHEAD       MOSUNNY   73  72  94 N10       30.02S
PARK RAPIDS    CLOUDY    73  69  87 NE3       30.01R
MAHNOMEN       CLOUDY    71  67  87 NW9       30.02S
$$
MNZ006-009>011-018-025>026-230000-
   North Central Minnesota

CITY           SKY/WX    TMP DP  RH WIND       PRES   REMARKS
BAUDETTE       CLOUDY    71  66  84 N9        30.03R
FLAG ISLAND    CLOUDY    72  64  78 NE5       30.02F
INTL FALLS     PTSUNNY   74  64  71 NE5       30.02S
WASKISH        CLOUDY    75  66  73 CALM      30.01S
BIG FORK       PTSUNNY   70  64  83 CALM      30.02S
LONGVILLE      CLOUDY    75  68  78 CALM      30.01R
GRAND RAPIDS   CLOUDY    75  66  73 CALM      30.01S
CRANE LAKE     MOSUNNY   73  66  78 NE3       30.04R
ORR            DRIZZLE   72  66  83 CALM      30.00S
COOK           CLOUDY    73  66  78 CALM      30.02S
WALKER         CLOUDY    73  69  88 W3        30.01R
$$
MNZ012-019>021-037-230000-
   Northeast Minnesota

CITY           SKY/WX    TMP DP  RH WIND       PRES   REMARKS
DULUTH         CLOUDY    67  62  84 SE6       30.03R
ELY            CLOUDY    70  64  83 NE3       30.03S
HIBBING        CLOUDY    75  66  73 CALM      30.02R
EVELETH        CLOUDY    72  64  78 CALM      30.03S
DULUTH HARBOR  CLOUDY    63  61  94 NE5       30.03S
TWO HARBORS    CLOUDY    66  59  77 E7        30.01S
SILVER BAY     MOSUNNY   64  64 100 NE6       30.02R
GRAND MARAIS     N/A     62  60  93 NE5       30.02R
G MARAIS ARPRT CLOUDY    64  59  82 NE8       30.06S
$$
MNZ029>031-032-039>041-046>048-054>057-064-230000-
   West Central Minnesota

CITY           SKY/WX    TMP DP  RH WIND       PRES   REMARKS
FERGUS FALLS   CLOUDY    75  64  69 N9        29.99S
WHEATON        PTSUNNY   75  68  78 NW7       30.01R
MORRIS         MOSUNNY   81  70  69 NW8       29.98S
ALEXANDRIA     MOSUNNY   79  68  69 NW7       30.01R
ELBOW LAKE     FAIR      76  68  76 NW6       30.00R
WADENA         CLOUDY    73  68  83 E5        30.00S
GLENWOOD       MOSUNNY   82  68  61 CALM      30.00S
APPLETON       MOSUNNY   84  66  54 NE5       29.97S
BENSON         SUNNY     82  66  57 N3        29.97S
ORTONVILLE     MOSUNNY   82  64  54 N5        29.98S
MADISON        SUNNY     84  70  61 NE3       29.97F
WILLMAR        FAIR      84  66  54 CALM      29.99S
$$
MNZ033>034-036-042>043-049>051-058-059-230000-
   Central Minnesota

CITY           SKY/WX    TMP DP  RH WIND       PRES   REMARKS
ST CLOUD       SUNNY     79  68  69 N6        29.99S
SAUK CENTRE    FAIR      79  68  68 E5        30.00R
PAYNESVILLE    MOSUNNY   77  67  69 N6        30.00R
AITKIN         PTSUNNY   77  68  73 CALM      30.00R
PINE RIVER     PTSUNNY   75  68  78 S5        30.03S
BRAINERD       PTSUNNY   75  66  73 CALM      30.00S
STAPLES        PTSUNNY   77  64  65 CALM      30.00S
LONG PRAIRIE   FAIR      79  66  65 CALM      30.00S
LITTLE FALLS   MOSUNNY   77  64  65 NE3       30.01R
LITCHFIELD     MOSUNNY   82  73  74 E6        30.00R
BUFFALO        CLOUDY    76  67  74 N3        30.01R
MAPLE LAKE     PTSUNNY   79  71  76 N5        30.01R
$$
MNZ037-044-045-052-053-230000-
   East Central Minnesota

CITY           SKY/WX    TMP DP  RH WIND       PRES   REMARKS
PRINCETON      CLOUDY    75  70  83 NE5       30.00R
MORA           MOSUNNY   73  64  73 CALM      30.02S
CAMBRIDGE      CLOUDY    75  64  69 CALM      29.99R
RUSH CITY      CLOUDY    73  67  81 N3        30.00R
MOOSE LAKE     CLOUDY    68  63  83 E3        30.00S
HINCKLEY       CLOUDY    72  68  88 N6        30.01R
CLOQUET        CLOUDY    66  63  88 SE3       30.03S
MCGREGOR       PTSUNNY   72  68  88 E6        30.02R
$$
MNZ071>073-080-081-089-090-097-098-230000-
   Southwest Minnesota

CITY           SKY/WX    TMP DP  RH WIND       PRES   REMARKS
MONTEVIDEO     SUNNY     90  70  51 E3        29.98S HX  95
GRANITE FALLS  SUNNY     83  69  62 CALM      29.99F
CANBY          MOSUNNY   82  68  62 CALM      29.99S
MARSHALL       MOSUNNY   82  68  61 E7        29.98S
REDWOOD FALLS  MOSUNNY   83  69  62 N5        29.97R
OLIVIA         SUNNY     82  66  57 NE3       29.98S
PIPESTONE      CLOUDY    81  66  61 E3        30.01S
WINDOM         SUNNY     81  70  69 N5        29.98F
WORTHINGTON      N/A     82  70  65 NE7       30.00S
JACKSON        MOSUNNY   82  68  61 NE6       29.98F
TRACY          MOSUNNY   82  71  68 NE3       29.99S
SLAYTON        MOSUNNY   82  68  62 CALM      30.01S
$$
MNZ065>067-074>077-082>085-091>093-230000-
   South Central Minnesota

CITY           SKY/WX    TMP DP  RH WIND       PRES   REMARKS
MANKATO        SUNNY     81  66  61 N7        29.96F
NEW ULM        SUNNY     82  70  65 CALM      29.97S
FAIRMONT       SUNNY     73  64  73 N7        29.96F
GLENCOE        PTSUNNY   81  67  63 N8        29.98S
FARIBAULT      SUNNY     84  66  54 N7        29.97S
OWATONNA       SUNNY     82  68  61 NW6       29.96F
WASECA         SUNNY     79  64  61 N6        29.98S
ALBERT LEA     SUNNY     82  70  65 N6        29.96S
$$
MNZ078>079-086>088-094>096-230000-
   Southeast Minnesota

CITY           SKY/WX    TMP DP  RH WIND       PRES   REMARKS
ROCHESTER      SUNNY     82  70  66 N6        29.97S
RED WING       SUNNY     82  70  65 NW5       29.95R
STANTON        MOSUNNY   81  70  69 N7        29.96R
DODGE CENTER   SUNNY     81  72  74 N6        29.97S
WINONA         SUNNY     82  70  65 N6        29.94R
AUSTIN         SUNNY     82  72  69 N6        29.95F
PRESTON        MOSUNNY   82  76  81 NW5       29.97R HX  90
$$
ABBREVIATIONS USED IN REMARKS
   TC - TEMPERATURES IN CELSIUS
  WCI - WIND CHILL INDEX
   HX - HEAT INDEX
  VSB - VISIBILITY
$$



USA.gov is the U.S. government's official web portal to all federal, state and local government web resources and services.